ATLAS 5 CENTAUR DEB, 46654

Orbit data source: Space-Track

ATLAS 5 CENTAUR DEB, 46654 is space debris in HEO originally from a launch on Wed, 17 Sep 2014 UTC launched from the Air Force Eastern Test Range (AFETR). Debris objects in space refer to the collection of defunct objects orbiting the Earth. Examples of debris include non-operational satellites, rocket bodies, and fragments generated from explosions, collisions, or faulty payload assembly.

Loading next visibility...
Identifier
46654, 2014-055DD
Orbit
HEO
Country
Flag of USUS
Related business
Flag of USUnited Launch Alliance/Lockheed Martin (US)
Manufacturer
Unknown
Mission
Spacecraft
Bus & Motor
Unknown
Mass
Unknown
Launch date (UTC)
2014-09-17 (12 years ago)
Launch vehicle
Unknown
Launch site
Air Force Eastern Test Range (AFETR)
Object type
Payload
Rocket body
Debris
Shape & HBR
Unknown shape, 1.1 m
Radar Cross Section
Small (<0.1 m²)

Expand to show TLE details & history
Last TLE update: 3 months ago

TLE from 3 months ago
0 ATLAS 5 CENTAUR DEB
1 46654U 14055DD  26151.98487863  .00000150  00000-0  00000-0 0  9994
2 46654  20.7676  82.0062 5156537 275.5750  30.3827  1.96050936 40473
Epoch: 2026-05-31T23:38Z
TLE epoch observation values (Epoch: 2026-05-31T23:38:13.513Z)
Latitude
0.00007°
Longitude
-162.13221°
Altitude
12,482.63 km
Speed
5.243 km/s
True Right ascension
05h 27m 36s
True Declination
0° 00' 00"
Sunlit
Object was in daylight at epoch
Visualization orbit readout
Latitude
Unknown
Longitude
Unknown
Altitude
Unknown
Speed
Unknown
Apparent Right ascension
Unknown
Apparent Declination
Unknown
Sunlit
N/A
Visualization observer readout
Local Sidereal Time
17:47:30
Azimuth
Unknown
Elevation
Unknown
Doppler factor
Unknown
Orbital elements
Apogee altitude
34,496.767 km
Perigee altitude
6,683.955 km
Semi-major axis
26,968.498 km
Eccentricity
0.51565
Inclination
20.7676°
RAAN
82.0062°
Arg. of periapsis
275.575°
True anomaly
84.55962°
Mean anomaly
30.3827°
Eccentric anomaly
54.40798°
Mean motion
0.49007 °/min
Orbital period
734.59 mins
BSTAR
0
Loading maneuver chart data...
Computing Atmospheric mass density...

Documentation

Showing up to 5 results
|